User: anonymous   Login
Location: Unspecified
(0.0000°N, 0.0000°E)
Time: 19:10:33
(UTC+00:00)
Language:

OPTUS D2 - Orbit

View from above orbital plane
View from above orbital plane
View from above satellite
View from above satellite

Ground track
Ground track

The orbit data is extracted from the following two-line orbital elements,

1 32252U 07044A   17049.89109753 -.00000193  00000-0  00000+0 0  9995
2 32252   0.0456 286.2751 0003665  47.8161 287.7158  1.00273137 34299
Epoch (UTC): 18 February 2017 21:23:10
Eccentricity: 0.0003665
inclination: 0.0456°
perigee height: 35770 km
apogee height: 35801 km
right ascension of ascending node: 286.2751°
argument of perigee: 47.8161°
revolutions per day: 1.00273137
mean anomaly at epoch: 287.7158°
orbit number at epoch: 3429

The dashed part of the orbit path shows where the satellite is in the earth's shadow,  

DLR